星链-3127 (STARLINK-3127 )

导读 | 豆包AI

STARLINK-3127是美国SpaceX公司星链(Starlink)卫星互联网星座中的一员,于2021年11月13日发射升空。星链项目计划在近地轨道部署数万颗卫星,旨在为全球偏远地区提供高速、低延迟的宽带互联网服务。作为星链星座的组成部分,该卫星加入了不断扩张的卫星网络,助力实现全球覆盖目标。不过,星链卫星的大规模部署也引发了天文学观测干扰和太空碎片等方面的担忧。

基本信息
目录编号:
49450
目录名称:
STARLINK-3127
国际标识:
2021-104AU
轨道中心:
EARTH
卫星名称:
星链-3127
卫星全名:
星链-3127 (STARLINK-3127 )
卫星状态:
在轨 (已飞行1629 天)
发射日期:
2021-11-13 UTC
国别 :
美国 (US)
星等 :
--
轨道信息
数据来源 国际轨道数据 AOE轨道数据
星历时间 2026-04-30T23:02:24+0800
7小时前
查看轨道信息
2026-04-29T05:00:00+0800
2天前
查看轨道信息
半长轴 6917.9km 6917.875km
偏心率 0.0001167 0.0001499
轨道倾角 53.218° 53.219°
近地点辐角 91.007° 90.371°
升交点赤经 346.004° 353.868°
平近点角 269.105° 109.809°
近地点 538.955km 538.701km
远地点 540.571km 540.775km
周期 95.438分钟 95.437分钟
每日圈数 15.088339 15.088418
详细信息
固有亮度:
5
最大亮度:
2.5
卫星平台:
Starlink v1.5
覆盖范围:
全球
运营商:
太空探索技术公司
运营商所在国:
美国
制造商(研发单位):
太空探索技术公司
制造商所在国:
美国
使用方式:
暂无
卫星简介
星链(Starlink)计划是由太空探索技术公司(SpaceX)提出的一个巨型低轨卫星互联网星座项目,计划在2019年至2024年间在太空搭建由约1.2万颗卫星组成的“星链”网络,其中1584颗将部署在地球上空550千米处的近地轨道,并从2020年开始工作。该卫星仍在工作。
2D轨道图
3D轨道图
轨道高度分析图
轨道倾角分析图
轨道综合分析图
查看轨道综合分析图